Regional Weather Roundup
Issued by NWS

Home | Current Version | Previous Version | Graphics & Text | Print | Product List | Glossary On
Versions: 1 2 3 4 5 6 7 8 9 10 11 12 13 14 15 16 17 18 19 20 21 22 23 24 25 26 27 28 29 30 31 32 33 34 35 36 37 38 39 40 41 42 43 44 45 46 47 48 49 50
000
ASUS45 KTFX 050810
RWRMT
MONTANA REGIONAL WEATHER ROUNDUP
NATIONAL WEATHER SERVICE GREAT FALLS MT
200 AM MDT SUN JUL 05 2015

NOTE: "FAIR" INDICATES FEW OR NO CLOUDS BELOW 12000 FEET WITH NO
SIGNIFICANT WEATHER AND/OR OBSTRUCTIONS TO VISIBILITY.

MTZ001>007-043-050900-
WEST OF THE DIVIDE

CITY           SKY/WX    TMP DP  RH WIND       PRES   REMARKS
KALISPELL      MOSUNNY   66  45  46 N26G36    29.92R
MISSOULA       PTCLDY    69  42  37 CALM      29.82S
BUTTE          MOCLDY    61  38  42 SE5       29.97F
MULLAN PASS    CLEAR     69  34  27 VRB5      30.00F
DEER LODGE       N/A     64  52  63 N18G28    30.01R
EUREKA           N/A     66  43  42 NE12G24   29.96R
HAMILTON         N/A     64  46  52 CALM      29.84S
LIBBY            N/A     73  48  40 W5        29.86R
$$

MTZ008-052>055-050900-
SOUTHWEST MONTANA

CITY           SKY/WX    TMP DP  RH WIND       PRES   REMARKS
BOZEMAN        MOCLDY    60  47  61 NW9       29.88R
DILLON         CLOUDY    71  34  25 S8        29.92S
W YELLOWSTONE  MOCLDY    57  41  54 CALM      30.03S
THREE FORKS      N/A     71  61  70 N8        29.89R
TWIN BRIDGES     N/A     65  45  48 N3        29.90S
$$

MTZ009-010-012-014-046-048-049-054-050900-
EAST SLOPES AND CENTRAL MONTANA

CITY           SKY/WX    TMP DP  RH WIND       PRES   REMARKS
CUT BANK       LGT RAIN  51  50  96 N16       30.14S FOG
GREAT FALLS    CLOUDY    59  52  77 N13       30.07R
MALMSTROM AFB  MOCLDY    59  52  78 N16G25    30.06R
HELENA         CLOUDY    63  52  67 N14G32    30.04S
$$

MTZ011-013-016-021-045-047-050-051-050900-
NORTH CENTRAL MONTANA

CITY           SKY/WX    TMP DP  RH WIND       PRES   REMARKS
LEWISTOWN      MOCLDY    63  51  65 N23G33    29.93R
FORT BENTON      N/A     59  55  88 N12G23    30.01R
$$

MTZ017>020-022>027-061-062-050900-
NORTHEAST MONTANA

CITY           SKY/WX    TMP DP  RH WIND       PRES   REMARKS
GLASGOW        MOCLDY    63  53  70 N23G35    29.86S HAZE
JORDAN           N/A     66  57  72 N24G37    29.82R
SIDNEY         MOCLDY    66  61  82 N8        29.76R
WOLF POINT     TSTM      66  60  81 N30G38    29.86R
PLENTYWOOD       N/A     64  61  88 N16       29.85R
POPLAR           N/A     66  59  77 N10       29.84R
$$

MTZ028>42-056>058-050900-
SOUTHCENTRAL AND SOUTHEAST MONTANA

CITY           SKY/WX    TMP DP  RH WIND       PRES   REMARKS
BAKER          PTCLDY    62  55  77 SE7       29.76F
BILLINGS       PTCLDY    75  57  53 W5        29.77F
LIVINGSTON     PTCLDY    67  48  50 CALM      29.86S
MILES CITY     PTCLDY    68  61  78 NE13      29.70F
FORSYTH          N/A     70  57  64 E7        29.68F
LAUREL           N/A     70  54  56 N5        29.78F
ROUNDUP          N/A     70  57  63 N12       29.77R
$$

REGIONAL REPORTS...DAKOTAS

CITY           SKY/WX    TMP DP  RH WIND       PRES   REMARKS
WILLISTON      MOCLDY    66  62  87 N9        29.78S
MINOT          MOCLDY    61  59  93 NW7       29.76F FOG
DICKINSON      CLEAR     64  58  80 N7        29.74F
BEACH          FAIR      61  61 100 S5        29.77S
CROSBY         FAIR      59  59 100 NW8       29.83R
BISMARCK       CLEAR     69  67  93 E8        29.72F
GRAND FORKS    CLOUDY    67  65  93 E16G22    29.76R
FARGO          CLOUDY    73  65  75 SE13      29.77S
BUFFALO SD       N/A     72  55  55 S3        29.70F
RAPID CITY     CLEAR     69  62  78 SW12      29.81F
$$

REGIONAL REPORTS...WYOMING/IDAHO/WASHINGTON

CITY           SKY/WX    TMP DP  RH WIND       PRES   REMARKS
GILLETTE       CLEAR     72  54  53 S12       29.83F
SHERIDAN       CLEAR     69  53  56 NW7       29.79S
BUFFALO WY     PTCLDY    71  53  52 CALM      29.89F
CODY           PTCLDY    70  46  43 SW7       29.89F
YELLOWSTONE LA   N/A     51  39  63 NW3       30.15F
IDAHO FALLS    CLOUDY    74  51  44 S23       29.89S
SALMON         MOCLDY    68  48  49 CALM      29.84S
BOISE          MOCLDY    80  42  25 SE9       29.80R
SPOKANE        PTCLDY    78  30  17 N9        29.77S
$$

REGIONAL REPORTS...ALBERTA

CITY           SKY/WX    TMP DP  RH WIND       PRES   REMARKS
EDMONTON       CLOUDY    55  43  62 NW14      30.08R
CALGARY        MOCLDY    54  43  66 N9        30.18R
LETHBRIDGE     LGT RAIN  52  50  93 NW3       30.16S
MEDICINE HAT   LGT RAIN  55  54  94 NW8       30.10R
WATERTON GATE    N/A     48  46  93 NE3         N/A
CARDSTON         N/A     48  48 100 NW6         N/A
MILK RIVER       N/A     52  52 100 N15         N/A
ONEFOUR          N/A     54  50  87 N16G23      N/A
$$

REGIONAL REPORTS...SASKATCHEWAN

CITY           SKY/WX    TMP DP  RH WIND       PRES   REMARKS
SWIFT CURRENT  LGT RAIN  59  46  63 NW8       30.01R
REGINA         CLOUDY    59  57  94 NW5       29.89R FOG
SASKATOON      MOCLDY    57  48  72 N9        29.93R SMOKE
CYPRESS HILLS    N/A     48  46  93 N7          N/A
VAL MARIE        N/A     55  52  88 N14         N/A
ROCKGLEN         N/A     57  54  88 NW14G20     N/A
ASSINIBOIA       N/A     55  48  76 NW14        N/A
$$



USA.gov is the U.S. government's official web portal to all federal, state and local government web resources and services.